Total_Precipitation_Accumulation
2.50 2.57 2.60 2.68 2.57 2.38 2.33 2.43 2.56 2.36 2.20 2.03 1.85 1.67 1.72 1.69 1.77 1.54 1.46 1.46 1.39 1.27 1.14 1.04 1.00 1.11 1.40 1.77 1.95 1.89 1.96 2.19 2.59 2.95 2.81 2.72 2.62 2.57
2.20 2.27 2.33 2.39 2.40 2.35 2.33 2.35 2.36 2.34 2.24 2.01 1.73 1.50 1.55 1.62 1.79 1.52 1.56 1.74 1.59 1.37 1.12 1.05 1.02 1.00 1.08 1.22 1.33 1.27 1.22 1.32 1.67 2.32 2.56 2.53 2.53 2.60
1.91 1.93 2.07 2.16 2.37 2.40 2.35 2.32 2.31 2.24 2.12 2.01 1.76 1.56 1.53 1.64 1.72 1.59 1.60 1.65 1.55 1.45 1.22 1.10 1.00 1.05 1.08 1.11 1.19 1.12 0.98 0.92 1.02 1.29 1.65 1.86 2.03 2.27
1.70 1.73 1.84 1.92 2.07 2.19 2.29 2.20 2.20 2.18 2.17 2.13 1.91 1.70 1.63 1.64 1.72 1.68 1.56 1.53 1.53 1.58 1.37 1.23 1.11 1.03 1.09 1.08 1.18 1.23 1.14 0.97 0.90 0.94 1.10 1.29 1.51 1.73
1.49 1.55 1.62 1.69 1.80 1.91 2.01 2.10 2.11 2.07 2.16 2.15 1.96 1.77 1.62 1.57 1.63 1.57 1.53 1.59 1.48 1.55 1.48 1.33 1.26 1.15 1.13 1.12 1.12 1.22 1.23 1.13 0.96 0.92 1.01 1.12 1.23 1.37
1.26 1.25 1.29 1.32 1.44 1.57 1.68 1.84 1.99 2.11 2.18 2.22 2.07 1.83 1.65 1.59 1.65 1.70 1.68 1.58 1.57 1.46 1.47 1.44 1.42 1.35 1.24 1.21 1.11 1.11 1.20 1.21 1.06 0.97 0.96 1.00 1.02 1.05
1.34 1.21 1.10 1.10 1.24 1.32 1.40 1.65 1.85 2.00 2.12 2.18 2.09 1.92 1.75 1.66 1.62 1.63 1.69 1.76 1.75 1.58 1.52 1.44 1.39 1.24 1.11 1.12 1.11 1.05 1.04 1.05 0.99 0.90 0.83 0.77 0.79 0.85
1.29 1.27 1.25 1.19 1.07 1.04 1.12 1.28 1.53 1.72 1.88 1.99 2.01 1.84 1.66 1.63 1.68 1.71 1.70 1.75 1.79 1.63 1.57 1.62 1.56 1.42 1.25 1.11 1.17 1.09 1.03 1.01 1.01 1.00 0.91 0.84 0.82 0.82
1.24 1.24 1.27 1.24 1.29 1.13 1.08 1.08 1.10 1.29 1.54 1.75 1.77 1.68 1.73 1.66 1.63 1.60 1.59 1.58 1.59 1.61 1.61 1.63 1.60 1.47 1.30 1.22 1.29 1.22 1.15 1.09 1.06 1.08 1.06 0.98 0.90 0.85
1.36 1.37 1.41 1.42 1.35 1.46 1.40 1.26 1.15 1.13 1.25 1.20 1.27 1.56 1.69 1.74 1.74 1.74 1.77 1.67 1.58 1.58 1.51 1.53 1.45 1.38 1.26 1.18 1.24 1.16 1.10 1.06 1.05 1.04 1.08 1.10 1.09 1.05
1.41 1.37 1.39 1.38 1.60 1.68 1.53 1.44 1.32 1.23 1.42 1.46 1.46 1.53 1.62 1.63 1.61 1.66 1.72 1.67 1.59 1.52 1.42 1.31 1.25 1.33 1.37 1.27 1.22 1.28 1.22 1.14 1.08 1.09 1.11 1.11 1.17 1.19
1.48 1.41 1.56 1.48 1.51 1.48 1.36 1.51 1.45 1.31 1.23 1.21 1.21 1.28 1.31 1.37 1.44 1.41 1.54 1.57 1.50 1.52 1.37 1.30 1.25 1.32 1.37 1.27 1.15 1.13 1.18 1.23 1.19 1.13 1.16 1.17 1.18 1.13
1.39 1.40 1.36 1.50 1.34 1.30 1.30 1.35 1.48 1.46 1.41 1.41 1.33 1.26 1.22 1.21 1.20 1.25 1.36 1.45 1.47 1.45 1.31 1.27 1.31 1.34 1.27 1.15 1.11 1.02 0.95 0.99 1.02 0.99 1.00 1.07 1.12 1.08
1.21 1.10 1.12 1.25 1.13 1.09 1.07 1.17 1.36 1.38 1.32 1.37 1.33 1.24 1.17 1.13 1.11 1.14 1.25 1.32 1.33 1.33 1.34 1.31 1.31 1.30 1.28 1.10 1.03 1.02 0.98 0.95 0.96 0.94 0.88 1.02 1.05 1.09
1.01 1.03 0.97 0.96 0.96 0.89 0.92 1.06 1.13 1.25 1.34 1.34 1.21 1.11 1.11 1.14 1.15 1.15 1.16 1.22 1.25 1.23 1.22 1.19 1.24 1.29 1.32 1.20 1.07 1.02 1.04 1.05 1.02 1.00 0.98 0.95 0.92 0.95
0.82 0.75 0.75 0.77 0.81 0.81 0.81 0.84 0.90 1.14 1.34 1.31 1.19 1.12 1.13 1.17 1.23 1.25 1.23 1.19 1.22 1.22 1.22 1.22 1.19 1.22 1.19 1.12 1.12 1.10 1.08 1.08 1.06 1.10 1.11 1.07 1.00 0.92
0.96 0.86 0.79 0.75 0.75 0.77 0.77 0.83 0.96 1.10 1.24 1.18 1.20 1.16 1.16 1.22 1.25 1.27 1.34 1.33 1.26 1.19 1.24 1.34 1.39 1.38 1.30 1.23 1.19 1.13 1.15 1.12 1.12 1.18 1.21 1.17 1.07 0.98
0.98 0.93 0.94 0.92 0.90 0.89 0.86 0.82 0.84 0.95 1.05 1.13 1.15 1.17 1.18 1.19 1.19 1.21 1.27 1.31 1.27 1.21 1.17 1.25 1.41 1.55 1.54 1.38 1.20 1.14 1.20 1.21 1.21 1.26 1.25 1.19 1.06 0.99
0.85 0.85 0.88 0.87 0.85 0.87 0.86 0.84 0.84 0.84 0.92 1.04 1.17 1.26 1.29 1.29 1.30 1.26 1.25 1.27 1.22 1.17 1.15 1.17 1.30 1.46 1.55 1.40 1.18 1.05 1.10 1.17 1.22 1.22 1.20 1.15 1.03 0.94
0.71 0.78 0.80 0.80 0.79 0.81 0.80 0.80 0.79 0.81 0.85 0.91 1.02 1.16 1.32 1.41 1.42 1.40 1.37 1.36 1.35 1.27 1.22 1.20 1.20 1.28 1.41 1.36 1.19 1.03 1.03 1.11 1.18 1.16 1.11 1.09 1.05 1.06
0.54 0.63 0.67 0.69 0.71 0.73 0.75 0.80 0.83 0.84 0.85 0.87 0.90 0.95 1.06 1.24 1.36 1.40 1.46 1.56 1.53 1.43 1.37 1.30 1.27 1.36 1.32 1.34 1.23 0.96 0.91 0.98 1.05 1.09 1.12 1.18 1.13 1.05
0.53 0.56 0.61 0.64 0.69 0.71 0.74 0.76 0.79 0.83 0.86 0.89 0.90 0.95 1.02 1.10 1.19 1.27 1.33 1.40 1.46 1.46 1.44 1.39 1.36 1.40 1.40 1.45 1.31 1.06 0.97 0.96 0.99 1.09 1.15 1.24 1.22 1.10
0.54 0.54 0.55 0.59 0.62 0.69 0.79 0.84 0.83 0.84 0.88 0.95 1.03 1.07 1.09 1.13 1.14 1.19 1.24 1.30 1.36 1.36 1.36 1.37 1.34 1.32 1.31 1.29 1.30 1.23 1.12 1.06 1.03 1.02 0.99 1.11 1.14 1.05